Simultaneous Nadir Overpasses (SNOs) Predictions

Prediction of SNOs between AQUA and NOAA-19 Satellite Orbit:

Table of predicted SNOs for the next 14.0 days since TLE Epoch: 5/23/2016
Index Date (AQUA) Time (AQUA) Lat,Lon (AQUA) SZA (AQUA ) Date (NOAA-19) Time (NOAA-19) Lat,Lon (NOAA-19) SZA (NOAA-19 ) Distance(km) Time Diff (sec)
1 05/24/2016 06:17:28 -80.82,-132.91 118.03 05/24/2016 06:16:42 -80.82,-132.75 118.03 2.80 46
2 05/24/2016 07:06:54 80.80, 35.00 61.92 05/24/2016 07:07:40 80.80, 35.00 61.90 0.40 46
3 05/26/2016 11:51:08 80.83, -36.48 61.61 05/26/2016 11:50:46 80.83, -36.55 61.63 1.37 22
4 05/26/2016 12:40:33 -80.80, 131.55 118.46 05/26/2016 12:41:46 -80.80, 131.47 118.48 1.43 73
5 05/28/2016 17:24:46 -80.81, 60.37 118.79 05/28/2016 17:24:50 -80.81, 60.42 118.79 1.00 4
6 05/30/2016 22:08:59 -80.82, -10.86 119.07 05/30/2016 22:07:55 -80.84, -11.03 119.02 3.28 64
7 05/30/2016 22:58:25 80.80, 157.01 60.89 05/30/2016 22:58:54 80.81, 156.94 60.89 1.63 29
8 06/02/2016 03:42:38 80.82, 85.72 60.65 06/02/2016 03:41:59 80.83, 85.65 60.68 1.42 39
9 06/02/2016 04:32:04 -80.82,-106.56 119.38 06/02/2016 04:32:58 -80.81,-106.55 119.40 0.43 54




NCC Satellite Simultaneous Nadir Overpasses (SNOs) Prediction Service
